LRFT Weather Reports


time (UTC)temp
F
wind
direction
speed
knots
gust
knots
rain 1hr
in
rain 24hr
in
rain mn
in
humidity
%
barometer
mb
20260906194900 70 80 11.3 0.0 0.00 0.00 0.00 57 1022.0
20260906193400 70 80 11.3 0.0 0.00 0.00 0.00 57 1022.0
20260906191900 70 80 11.3 0.0 0.00 0.00 0.00 57 1022.0
20260906190401 70 80 11.3 0.0 0.00 0.00 0.00 57 1022.0
20260906184917 70 50 14.8 0.0 0.00 0.00 0.00 57 1021.0
20260906183359 70 50 14.8 0.0 0.00 0.00 0.00 57 1021.0
20260906181900 70 50 14.8 0.0 0.00 0.00 0.00 57 1021.0
20260906180400 70 50 14.8 0.0 0.00 0.00 0.00 57 1021.0
20260906174909 73 30 9.6 0.0 0.00 0.00 0.00 47 1020.0
20260906173401 73 30 9.6 0.0 0.00 0.00 0.00 47 1020.0
20260906171900 73 30 9.6 0.0 0.00 0.00 0.00 47 1020.0
20260906170408 73 30 9.6 0.0 0.00 0.00 0.00 47 1020.0
20260906164914 81 320 12.2 0.0 0.00 0.00 0.00 30 1019.0
20260906163400 81 320 12.2 0.0 0.00 0.00 0.00 30 1019.0
20260906161901 81 320 12.2 0.0 0.00 0.00 0.00 30 1019.0
20260906160359 81 320 12.2 0.0 0.00 0.00 0.00 30 1019.0
20260906154856 82 310 9.6 20.0 0.00 0.00 0.00 28 1019.0
20260906153424 82 310 9.6 20.0 0.00 0.00 0.00 28 1019.0
20260906151901 82 310 9.6 20.0 0.00 0.00 0.00 28 1019.0
20260906150401 82 310 9.6 20.0 0.00 0.00 0.00 28 1019.0
20260906144901 82 330 12.2 21.7 0.00 0.00 0.00 32 1018.0
20260906143359 82 330 12.2 21.7 0.00 0.00 0.00 32 1018.0
20260906141931 82 330 12.2 21.7 0.00 0.00 0.00 32 1018.0
20260906140359 82 330 12.2 21.7 0.00 0.00 0.00 32 1018.0
20260906134859 82 300 17.4 0.0 0.00 0.00 0.00 30 1018.0
20260906133400 82 300 17.4 0.0 0.00 0.00 0.00 30 1018.0
20260906131859 82 300 17.4 0.0 0.00 0.00 0.00 30 1018.0
20260906130401 82 300 17.4 0.0 0.00 0.00 0.00 30 1018.0
20260906124854 81 330 15.6 0.0 0.00 0.00 0.00 34 1019.0
20260906123357 81 330 15.6 0.0 0.00 0.00 0.00 34 1019.0
20260906121853 81 330 15.6 0.0 0.00 0.00 0.00 34 1019.0
20260906120356 81 330 15.6 0.0 0.00 0.00 0.00 34 1019.0
20260906114900 81 320 9.6 0.0 0.00 0.00 0.00 37 1019.0
20260906113359 81 320 9.6 0.0 0.00 0.00 0.00 37 1019.0
20260906111858 81 320 9.6 0.0 0.00 0.00 0.00 37 1019.0
20260906110400 81 320 9.6 0.0 0.00 0.00 0.00 37 1019.0
20260906104859 79 330 9.6 0.0 0.00 0.00 0.00 34 1019.0
20260906103400 79 330 9.6 0.0 0.00 0.00 0.00 34 1019.0
20260906101857 79 330 9.6 0.0 0.00 0.00 0.00 34 1019.0
20260906100400 79 330 9.6 0.0 0.00 0.00 0.00 34 1019.0
20260906094900 75 350 5.2 0.0 0.00 0.00 0.00 44 1019.0
20260906093400 75 350 5.2 0.0 0.00 0.00 0.00 44 1019.0
20260906091901 75 350 5.2 0.0 0.00 0.00 0.00 44 1019.0
20260906090401 75 350 5.2 0.0 0.00 0.00 0.00 44 1019.0
20260906084900 75 20 7.0 0.0 0.00 0.00 0.00 44 1019.0
20260906083359 75 20 7.0 0.0 0.00 0.00 0.00 44 1019.0
20260906081859 75 20 7.0 0.0 0.00 0.00 0.00 44 1019.0
20260906080400 75 20 7.0 0.0 0.00 0.00 0.00 44 1019.0
20260906074859 72 30 8.7 0.0 0.00 0.00 0.00 50 1019.0
20260906073359 72 30 8.7 0.0 0.00 0.00 0.00 50 1019.0
20260906071900 72 30 8.7 0.0 0.00 0.00 0.00 50 1019.0
20260906070359 72 30 8.7 0.0 0.00 0.00 0.00 50 1019.0
20260906064859 70 20 8.7 0.0 0.00 0.00 0.00 53 1019.0
20260906063400 70 20 8.7 0.0 0.00 0.00 0.00 53 1019.0
20260906062022 0 0.0 0.0 0.00 0.00 0.00
20260906060359 70 20 8.7 0.0 0.00 0.00 0.00 53 1019.0
20260906054925 66 20 7.8 0.0 0.00 0.00 0.00 64 1018.0
20260906053359 66 20 7.8 0.0 0.00 0.00 0.00 64 1018.0
20260906051900 66 20 7.8 0.0 0.00 0.00 0.00 64 1018.0
20260906050522 0 0.0 0.0 0.00 0.00 0.00
20260906045022 0 0.0 0.0 0.00 0.00 0.00
20260906043511 0 0.0 0.0 0.00 0.00 0.00
20260906042023 0 0.0 0.0 0.00 0.00 0.00
20260906040419 64 20 7.8 0.0 0.00 0.00 0.00 68 1017.0
20260906034922 0 0.0 0.0 0.00 0.00 0.00
20260906033522 0 0.0 0.0 0.00 0.00 0.00
20260906032024 0 0.0 0.0 0.00 0.00 0.00
20260906030522 0 0.0 0.0 0.00 0.00 0.00
20260906024927 66 300 2.6 0.0 0.00 0.00 0.00 68 1016.0
20260906023400 0 0.0 0.0 0.00 0.00 0.00
20260906021906 0 0.0 0.0 0.00 0.00 0.00
20260906020401 0 0.0 0.0 0.00 0.00 0.00
20260906014901 0 0.0 0.0 0.00 0.00 0.00
20260906013523 0 0.0 0.0 0.00 0.00 0.00
20260906011859 0 0.0 0.0 0.00 0.00 0.00
20260906010359 0 0.0 0.0 0.00 0.00 0.00
20260906005022 0 0.0 0.0 0.00 0.00 0.00
20260906003532 0 0.0 0.0 0.00 0.00 0.00
20260906002023 0 0.0 0.0 0.00 0.00 0.00
20260906000513 0 0.0 0.0 0.00 0.00 0.00
20260905234910 0 0.0 0.0 0.00 0.00 0.00
20260905233359 0 0.0 0.0 0.00 0.00 0.00
20260905232025 0 0.0 0.0 0.00 0.00 0.00
20260905230432 0 0.0 0.0 0.00 0.00 0.00
20260905225024 0 0.0 0.0 0.00 0.00 0.00
20260905223413 0 0.0 0.0 0.00 0.00 0.00
20260905222009 0 0.0 0.0 0.00 0.00 0.00
20260905220522 0 0.0 0.0 0.00 0.00 0.00
20260905215021 0 0.0 0.0 0.00 0.00 0.00
20260905213400 0 0.0 0.0 0.00 0.00 0.00
20260905211856 0 0.0 0.0 0.00 0.00 0.00
20260905210400 0 0.0 0.0 0.00 0.00 0.00
20260905204910 75 250 6.1 0.0 0.00 0.00 0.00 41 1014.0
20260905203359 75 250 6.1 0.0 0.00 0.00 0.00 41 1014.0
20260905201859 75 250 6.1 0.0 0.00 0.00 0.00 41 1014.0
20260905200522 0 0.0 0.0 0.00 0.00 0.00
20260905195015 0 0.0 0.0 0.00 0.00 0.00